Total_Precipitation_Accumulation
0.45 0.44 0.55 0.40 0.30 0.29 0.33 0.33 0.33 0.34 0.33 0.33 0.34 0.36 0.34 0.34 0.34 0.37 0.47 0.62 0.63 0.66 0.67 0.75 0.88 0.86 0.80 0.76 0.77 0.72 0.63 0.63 0.70 0.73 0.71 0.77 0.86 1.09 1.36 1.26 1.20 0.85 0.78
0.28 0.31 0.47 0.37 0.28 0.28 0.28 0.29 0.28 0.28 0.30 0.31 0.34 0.36 0.38 0.42 0.43 0.45 0.52 0.68 0.67 0.67 0.66 0.75 0.80 0.73 0.71 0.64 0.60 0.56 0.54 0.63 0.71 0.78 0.73 0.68 0.88 1.17 1.34 1.27 1.29 0.79 0.72
0.19 0.23 0.32 0.37 0.28 0.25 0.26 0.30 0.30 0.30 0.29 0.29 0.32 0.37 0.42 0.54 0.60 0.58 0.62 0.75 0.81 0.76 0.71 0.74 0.67 0.61 0.60 0.50 0.47 0.47 0.51 0.64 0.74 0.93 0.97 0.74 0.68 1.17 1.31 1.21 0.92 0.62 0.62
0.14 0.21 0.25 0.30 0.30 0.26 0.24 0.27 0.30 0.31 0.30 0.33 0.40 0.42 0.45 0.50 0.53 0.53 0.61 0.74 0.84 0.76 0.69 0.57 0.52 0.46 0.43 0.35 0.37 0.42 0.52 0.67 0.88 1.18 1.32 1.02 0.59 0.93 1.13 0.99 0.76 0.61 0.59
0.18 0.19 0.29 0.33 0.33 0.30 0.24 0.25 0.29 0.32 0.33 0.36 0.41 0.45 0.47 0.48 0.51 0.50 0.54 0.68 0.70 0.60 0.50 0.44 0.45 0.38 0.33 0.27 0.32 0.42 0.54 0.71 0.91 1.21 1.18 1.12 0.99 0.95 0.94 0.92 0.79 0.75 0.68
0.24 0.22 0.29 0.35 0.34 0.36 0.29 0.27 0.31 0.34 0.37 0.40 0.47 0.49 0.48 0.50 0.52 0.50 0.51 0.60 0.60 0.52 0.42 0.44 0.45 0.39 0.32 0.29 0.31 0.39 0.51 0.74 0.87 0.80 0.84 0.95 0.90 0.91 0.89 0.97 0.95 0.86 0.75
0.44 0.39 0.38 0.42 0.43 0.41 0.34 0.30 0.31 0.34 0.41 0.45 0.50 0.49 0.47 0.49 0.50 0.48 0.50 0.52 0.47 0.43 0.40 0.42 0.44 0.38 0.39 0.40 0.38 0.41 0.55 0.77 0.79 0.71 0.75 1.05 0.93 0.75 0.91 1.09 1.17 1.02 0.81
0.58 0.57 0.50 0.52 0.51 0.50 0.42 0.38 0.39 0.39 0.41 0.46 0.48 0.46 0.46 0.45 0.47 0.48 0.48 0.44 0.35 0.32 0.34 0.41 0.47 0.42 0.41 0.47 0.43 0.42 0.55 0.69 0.61 0.65 0.62 0.76 0.68 0.70 0.89 1.11 1.19 1.10 0.94
0.72 0.69 0.62 0.59 0.53 0.57 0.53 0.47 0.48 0.49 0.48 0.48 0.48 0.45 0.44 0.43 0.46 0.46 0.45 0.39 0.34 0.32 0.33 0.38 0.42 0.40 0.38 0.43 0.49 0.53 0.64 0.80 0.77 0.78 0.63 0.73 0.67 0.82 1.01 1.17 1.24 1.19 1.12
1.11 0.88 0.74 0.74 0.73 0.68 0.65 0.57 0.57 0.53 0.53 0.55 0.51 0.51 0.51 0.54 0.51 0.51 0.48 0.43 0.42 0.42 0.38 0.37 0.42 0.40 0.42 0.41 0.48 0.66 0.86 0.81 0.65 0.74 0.82 0.69 0.72 1.00 1.27 1.31 1.37 1.38 1.33
1.51 1.25 1.02 0.91 0.88 0.83 0.74 0.67 0.73 0.71 0.69 0.67 0.66 0.65 0.63 0.74 0.74 0.70 0.63 0.66 0.63 0.63 0.64 0.63 0.67 0.62 0.59 0.51 0.63 0.87 0.91 0.73 0.82 0.98 1.00 0.77 0.92 1.25 1.52 1.54 1.53 1.53 1.54
1.70 1.36 1.25 1.14 1.02 0.94 0.80 0.85 1.07 0.97 0.89 0.91 0.97 0.90 0.98 1.08 1.08 0.82 0.88 1.06 1.15 1.22 1.18 1.25 1.38 1.11 0.90 0.94 1.43 1.49 0.88 0.83 1.05 1.12 1.09 0.98 1.23 1.61 1.78 1.84 1.80 1.68 1.63
1.97 1.62 1.48 1.36 1.27 1.27 1.34 1.17 1.22 1.22 1.24 1.24 1.25 1.26 1.30 1.15 1.07 1.06 1.22 1.46 1.61 1.66 1.61 1.90 1.95 1.48 1.54 1.87 1.97 1.72 1.20 1.18 1.30 1.27 1.38 1.42 1.48 1.90 2.30 2.31 2.23 2.00 1.82
2.26 1.94 1.73 1.62 1.61 1.66 1.59 1.50 1.37 1.38 1.39 1.44 1.52 1.49 1.60 1.69 1.62 1.66 1.77 1.79 1.94 2.07 2.31 2.40 2.53 2.19 2.17 2.02 1.88 1.78 1.64 1.75 1.65 1.80 2.14 1.97 1.71 1.98 2.62 2.75 2.65 2.42 2.02
2.45 2.14 2.09 1.84 1.74 1.78 1.86 1.91 1.72 1.81 1.75 1.73 1.81 1.89 1.94 2.15 2.16 2.17 2.11 2.12 2.01 2.19 2.41 2.75 2.70 2.92 2.85 2.52 2.14 1.97 1.98 2.07 2.00 2.11 2.35 2.41 2.24 2.26 2.94 3.31 3.21 2.90 2.47
2.41 2.24 2.19 2.06 2.08 2.16 2.12 2.14 2.21 2.23 2.23 2.14 2.08 2.11 2.16 2.37 2.59 2.55 2.37 2.37 2.23 2.28 2.59 2.83 2.88 3.31 3.16 3.00 2.52 2.31 2.14 2.12 2.12 2.25 2.46 2.64 2.59 2.54 2.91 3.35 3.56 3.44 3.04
2.19 2.29 2.44 2.56 2.74 2.80 2.76 2.70 2.63 2.66 2.59 2.58 2.69 2.69 2.71 2.69 2.74 2.63 2.52 2.42 2.52 2.63 2.77 2.83 2.98 3.33 3.10 3.01 2.84 2.62 2.39 2.22 2.15 2.29 2.59 2.88 2.63 2.55 2.87 3.27 3.63 3.55 3.36
2.23 2.34 2.58 2.67 3.02 3.19 3.20 3.25 3.17 3.10 2.96 3.02 3.03 3.02 2.99 2.91 2.78 2.85 2.67 2.49 2.67 2.79 2.94 3.12 3.10 3.18 3.24 3.24 3.09 2.76 2.59 2.48 2.18 2.25 2.40 2.55 2.74 2.36 2.73 3.27 3.45 3.26 3.26
2.57 2.82 3.14 3.21 3.14 3.23 3.40 3.52 3.31 3.22 3.09 3.01 2.92 2.92 2.80 2.70 2.69 2.98 2.82 2.80 2.89 3.09 3.00 2.80 3.19 3.30 3.29 3.27 2.94 2.81 2.47 2.36 2.26 2.17 2.26 2.35 2.53 2.50 2.57 2.67 3.10 2.99 3.20
2.91 3.26 3.42 3.48 3.67 3.94 4.11 4.00 3.75 3.33 3.04 2.91 2.80 2.67 2.60 2.62 2.64 2.92 2.73 2.76 2.95 3.21 3.28 3.28 3.42 3.33 3.19 3.24 2.83 2.67 2.36 2.07 2.04 2.00 1.90 2.11 2.18 1.97 2.11 2.33 2.69 2.31 2.52
2.92 3.15 3.44 3.84 4.18 4.25 4.07 3.98 3.87 3.52 3.23 2.90 2.59 2.51 2.59 2.51 2.57 2.84 2.61 2.93 3.02 3.13 3.26 3.29 3.45 3.34 3.13 3.26 3.14 2.68 2.20 1.91 1.78 1.64 1.71 1.85 1.80 1.87 2.14 2.47 2.71 2.68 2.37
2.75 3.04 3.44 3.84 4.15 4.06 4.13 4.28 4.17 3.91 3.30 2.93 2.75 2.61 2.56 2.53 2.51 2.60 2.93 2.96 3.04 3.16 3.16 3.10 3.15 3.00 2.77 3.09 3.15 2.97 2.37 2.04 1.69 1.41 1.60 1.60 1.73 1.98 2.03 2.05 2.35 2.67 2.56
2.80 3.20 3.44 3.68 3.83 3.88 4.03 4.13 3.84 3.61 3.11 2.93 2.93 2.76 2.62 2.66 2.67 2.75 2.92 2.98 2.93 2.84 2.92 3.01 2.91 2.80 2.65 2.76 2.95 2.97 2.52 2.08 1.72 1.46 1.42 1.47 1.78 1.97 1.93 1.93 1.91 2.05 2.13
2.74 3.22 3.64 3.63 3.63 3.56 3.70 3.78 3.55 3.18 2.88 2.75 2.77 2.58 2.47 2.42 2.45 2.53 2.58 2.70 2.76 2.72 2.74 2.65 2.64 2.67 2.63 2.49 2.67 2.69 2.55 2.34 2.12 1.67 1.37 1.37 1.60 1.73 1.70 1.59 1.69 1.92 2.02
2.45 2.82 3.21 3.50 3.54 3.38 3.34 3.36 3.39 3.15 2.83 2.61 2.54 2.44 2.37 2.38 2.23 2.20 2.29 2.45 2.48 2.38 2.36 2.50 2.70 2.67 2.51 2.37 2.48 2.54 2.67 2.59 2.31 2.01 1.60 1.46 1.43 1.33 1.43 1.47 1.52 1.61 1.82
2.29 2.60 2.83 3.05 3.08 3.01 2.92 2.92 2.96 2.92 2.81 2.55 2.34 2.34 2.36 2.28 2.11 2.03 2.04 2.12 2.16 2.15 2.11 2.15 2.28 2.35 2.33 2.42 2.44 2.41 2.54 2.53 2.43 2.31 1.91 1.65 1.50 1.19 1.23 1.30 1.42 1.50 1.61